�������l�o���
Date,Time,MP-1(��Sv/h),MP-2(��Sv/h),MP-3(��Sv/h),MP-4(��Sv/h),MP-5(��Sv/h),MP-6(��Sv/h),MP-7(��Sv/h),����,����(m/s),���J
2015/05/04,00:00,0.552,0.336,0.591,0.550,0.478,0.255,0.232,��쐼,6.4,��
2015/05/04,00:10,0.551,0.338,0.595,0.548,0.484,0.255,0.232,��쐼,5.9,��
2015/05/04,00:20,0.550,0.337,0.593,0.552,0.478,0.257,0.232,��쐼,7.1,��
2015/05/04,00:30,0.552,0.339,0.591,0.548,0.483,0.257,0.232,��,6.0,��
2015/05/04,00:40,0.553,0.337,0.594,0.553,0.479,0.257,0.232,��쐼,6.2,��
2015/05/04,00:50,0.553,0.340,0.592,0.548,0.482,0.257,0.232,��쐼,6.3,��
2015/05/04,01:00,0.552,0.337,0.596,0.551,0.479,0.256,0.234,��쐼,6.7,��
2015/05/04,01:10,0.553,0.339,0.589,0.548,0.482,0.257,0.232,��쐼,6.8,��
2015/05/04,01:20,0.552,0.336,0.598,0.552,0.481,0.257,0.231,��쐼,7.2,��
2015/05/04,01:30,0.553,0.340,0.590,0.548,0.482,0.255,0.232,��쐼,7.3,��
2015/05/04,01:40,0.550,0.337,0.598,0.552,0.482,0.256,0.231,��쐼,6.7,��
2015/05/04,01:50,0.553,0.338,0.590,0.547,0.480,0.256,0.231,��쐼,5.9,��
2015/05/04,02:00,0.550,0.336,0.595,0.550,0.479,0.256,0.231,��,4.4,��
2015/05/04,02:10,0.553,0.339,0.592,0.549,0.480,0.256,0.232,��,5.5,��
2015/05/04,02:20,0.549,0.338,0.595,0.549,0.482,0.256,0.231,��,5.2,��
2015/05/04,02:30,0.554,0.339,0.592,0.549,0.478,0.256,0.232,��,4.5,��
2015/05/04,02:40,0.549,0.337,0.593,0.549,0.481,0.257,0.231,��,4.2,��
2015/05/04,02:50,0.554,0.339,0.595,0.549,0.480,0.256,0.232,��,3.2,��
2015/05/04,03:00,0.548,0.338,0.596,0.551,0.482,0.257,0.231,��,4.6,��
2015/05/04,03:10,0.554,0.339,0.593,0.549,0.479,0.257,0.233,��,4.9,��
2015/05/04,03:20,0.550,0.337,0.593,0.549,0.480,0.257,0.232,��,4.9,��
2015/05/04,03:30,0.553,0.340,0.595,0.548,0.480,0.256,0.232,��,4.1,��
2015/05/04,03:40,0.549,0.338,0.594,0.550,0.483,0.256,0.231,��,3.8,��
2015/05/04,03:50,0.555,0.338,0.594,0.549,0.479,0.256,0.231,��,3.6,��
2015/05/04,04:00,0.551,0.338,0.592,0.551,0.481,0.257,0.231,��,4.2,��
2015/05/04,04:10,0.553,0.338,0.594,0.552,0.478,0.256,0.232,��,5.0,��
2015/05/04,04:20,0.552,0.339,0.593,0.549,0.481,0.257,0.231,��,5.3,��
2015/05/04,04:30,0.554,0.338,0.596,0.551,0.479,0.257,0.232,��,5.3,��
2015/05/04,04:40,0.551,0.338,0.593,0.549,0.483,0.257,0.230,��,6.2,��
2015/05/04,04:50,0.551,0.336,0.596,0.552,0.478,0.255,0.231,��,6.5,��
2015/05/04,05:00,0.552,0.338,0.591,0.548,0.483,0.256,0.231,��,5.4,��
2015/05/04,05:10,0.553,0.337,0.594,0.554,0.478,0.256,0.232,��,5.3,��
2015/05/04,05:20,0.553,0.339,0.591,0.548,0.482,0.257,0.232,��,5.3,��
2015/05/04,05:30,0.552,0.338,0.597,0.553,0.479,0.256,0.231,��쐼,4.8,��
2015/05/04,05:40,0.553,0.340,0.592,0.547,0.483,0.257,0.232,��쐼,3.9,��
2015/05/04,05:50,0.548,0.339,0.597,0.554,0.479,0.256,0.233,��,3.6,��
2015/05/04,06:00,0.556,0.339,0.592,0.547,0.483,0.257,0.233,��,3.2,��
2015/05/04,06:10,0.549,0.337,0.597,0.551,0.478,0.256,0.232,��,4.6,��
2015/05/04,06:20,0.554,0.338,0.591,0.546,0.482,0.258,0.231,��,4.8,��
2015/05/04,06:30,0.549,0.338,0.598,0.552,0.480,0.256,0.232,��,6.1,��
2015/05/04,06:40,0.554,0.337,0.592,0.548,0.480,0.257,0.233,��,6.3,��
2015/05/04,06:50,0.550,0.340,0.594,0.550,0.480,0.256,0.231,��,6.9,��
2015/05/04,07:00,0.553,0.338,0.594,0.548,0.480,0.255,0.230,��,6.2,��
2015/05/04,07:10,0.552,0.338,0.593,0.550,0.483,0.257,0.232,��,5.3,��
2015/05/04,07:20,0.549,0.336,0.596,0.551,0.478,0.257,0.231,��,6.2,��
2015/05/04,07:30,0.553,0.338,0.590,0.549,0.484,0.258,0.232,��,5.9,��
2015/05/04,07:40,0.547,0.336,0.596,0.554,0.477,0.255,0.231,��,6.8,��
2015/05/04,07:50,0.553,0.338,0.592,0.548,0.481,0.257,0.232,��,7.1,��
2015/05/04,08:00,0.549,0.338,0.593,0.554,0.481,0.257,0.231,��,6.5,��
2015/05/04,08:10,0.551,0.337,0.595,0.547,0.478,0.256,0.233,��,6.9,��
2015/05/04,08:20,0.552,0.338,0.588,0.548,0.482,0.257,0.233,��,6.6,��
2015/05/04,08:30,0.548,0.337,0.596,0.550,0.477,0.257,0.232,��,6.4,��
2015/05/04,08:40,0.554,0.338,0.594,0.546,0.482,0.256,0.230,��,7.0,��
2015/05/04,08:50,0.550,0.338,0.589,0.552,0.480,0.255,0.232,��,8.0,��
2015/05/04,09:00,0.552,0.336,0.594,0.546,0.477,0.255,0.231,��,8.3,��
2015/05/04,09:10,0.552,0.338,0.589,0.550,0.483,0.255,0.231,��,6.7,��
2015/05/04,09:20,0.549,0.336,0.596,0.549,0.480,0.257,0.233,��쐼,5.6,��
2015/05/04,09:30,0.555,0.337,0.593,0.546,0.482,0.255,0.230,��,6.6,��
2015/05/04,09:40,0.549,0.337,0.591,0.551,0.481,0.255,0.231,��,7.6,��
2015/05/04,09:50,0.555,0.336,0.596,0.548,0.477,0.257,0.233,��,8.7,��
2015/05/04,10:00,0.551,0.341,0.589,0.551,0.482,0.255,0.232,��,10.6,��
2015/05/04,10:10,0.550,0.336,0.598,0.549,0.480,0.256,0.232,��,11.1,��
2015/05/04,10:20,0.553,0.340,0.593,0.550,0.482,0.255,0.232,��,10.7,��
2015/05/04,10:30,0.547,0.339,0.590,0.553,0.481,0.258,0.230,��,11.0,��
2015/05/04,10:40,0.544,0.336,0.596,0.545,0.476,0.256,0.232,��,11.0,��
2015/05/04,10:50,0.551,0.334,0.593,0.541,0.473,0.255,0.232,��,10.4,��
2015/05/04,11:00,0.549,0.337,0.588,0.551,0.480,0.257,0.230,��,11.8,��
2015/05/04,11:10,0.547,0.338,0.587,0.549,0.482,0.256,0.232,��,13.3,��
2015/05/04,11:20,0.545,0.335,0.590,0.545,0.477,0.255,0.231,��,12.3,��
2015/05/04,11:30,0.554,0.336,0.596,0.547,0.477,0.258,0.230,��,12.8,��
2015/05/04,11:40,0.552,0.340,0.591,0.554,0.484,0.256,0.233,��,13.8,��
2015/05/04,11:50,0.547,0.337,0.587,0.549,0.482,0.256,0.233,��,14.6,��
2015/05/04,12:00,0.553,0.336,0.591,0.546,0.477,0.257,0.230,��,13.2,��
2015/05/04,12:10,0.556,0.340,0.596,0.554,0.482,0.256,0.233,��,14.3,��
2015/05/04,12:20,0.548,0.338,0.596,0.551,0.482,0.256,0.233,��,14.3,��
2015/05/04,12:30,0.550,0.336,0.588,0.545,0.479,0.256,0.230,��,13.9,��
2015/05/04,12:40,0.556,0.339,0.588,0.551,0.478,0.256,0.233,��,15.1,��
2015/05/04,12:50,0.553,0.339,0.594,0.554,0.483,0.255,0.233,��,14.0,��
2015/05/04,13:00,0.548,0.336,0.597,0.547,0.481,0.256,0.230,��,15.8,��
2015/05/04,13:10,0.556,0.337,0.593,0.545,0.477,0.257,0.233,��,15.4,��
2015/05/04,13:20,0.552,0.340,0.593,0.554,0.478,0.255,0.232,��,13.8,��
2015/05/04,13:30,0.546,0.339,0.588,0.552,0.483,0.257,0.231,��,14.9,��
2015/05/04,13:40,0.555,0.336,0.596,0.547,0.480,0.256,0.231,��,14.6,��
2015/05/04,13:50,0.555,0.337,0.596,0.551,0.475,0.255,0.233,��,14.3,��
2015/05/04,14:00,0.548,0.339,0.595,0.555,0.480,0.257,0.231,��,13.2,��
2015/05/04,14:10,0.550,0.338,0.589,0.550,0.482,0.257,0.232,��,13.7,��
2015/05/04,14:20,0.552,0.336,0.587,0.547,0.479,0.256,0.233,��,13.1,��
2015/05/04,14:30,0.550,0.340,0.596,0.554,0.477,0.256,0.231,��,12.9,��
2015/05/04,14:40,0.546,0.339,0.597,0.552,0.484,0.257,0.232,��,11.8,��
2015/05/04,14:50,0.556,0.336,0.592,0.546,0.482,0.256,0.233,��,14.0,��
2015/05/04,15:00,0.554,0.338,0.589,0.552,0.478,0.256,0.232,��,14.0,��
2015/05/04,15:10,0.550,0.340,0.599,0.552,0.482,0.257,0.232,��,11.8,��
2015/05/04,15:20,0.557,0.337,0.596,0.548,0.484,0.256,0.232,��,10.7,��
2015/05/04,15:30,0.554,0.342,0.594,0.555,0.480,0.257,0.232,��,9.4,��
2015/05/04,15:40,0.553,0.339,0.600,0.547,0.487,0.257,0.231,��,10.4,��
2015/05/04,15:50,0.556,0.338,0.595,0.555,0.484,0.257,0.234,��,10.4,��
2015/05/04,16:00,0.550,0.339,0.595,0.553,0.479,0.257,0.231,��,9.2,��
2015/05/04,16:10,0.554,0.337,0.598,0.548,0.487,0.257,0.233,��,9.4,��
2015/05/04,16:20,0.552,0.341,0.592,0.555,0.477,0.257,0.231,��,9.2,��
2015/05/04,16:30,0.554,0.338,0.598,0.547,0.480,0.256,0.234,��,8.1,��
2015/05/04,16:40,0.555,0.340,0.596,0.556,0.483,0.256,0.231,��,8.1,��
2015/05/04,16:50,0.550,0.340,0.592,0.550,0.477,0.255,0.233,��,9.8,��
2015/05/04,17:00,0.555,0.339,0.600,0.551,0.484,0.256,0.232,��,8.9,��
2015/05/04,17:10,0.551,0.340,0.593,0.554,0.481,0.257,0.232,��쐼,9.0,��
2015/05/04,17:20,0.552,0.337,0.592,0.547,0.478,0.255,0.232,��쐼,6.3,��
2015/05/04,17:30,0.554,0.339,0.597,0.552,0.484,0.257,0.233,��쐼,8.2,��
2015/05/04,17:40,0.551,0.338,0.590,0.552,0.479,0.257,0.232,��쐼,8.0,��
2015/05/04,17:50,0.556,0.340,0.599,0.550,0.480,0.256,0.233,��쐼,6.0,��
2015/05/04,18:00,0.550,0.338,0.595,0.553,0.482,0.257,0.232,��쐼,5.8,��
2015/05/04,18:10,0.556,0.338,0.591,0.548,0.478,0.257,0.232,��쐼,7.2,��
2015/05/04,18:20,0.551,0.339,0.597,0.553,0.482,0.255,0.233,��,8.3,��
2015/05/04,18:30,0.554,0.338,0.593,0.551,0.483,0.256,0.231,��쐼,9.2,��
2015/05/04,18:40,0.554,0.339,0.592,0.548,0.480,0.256,0.233,��쐼,8.8,��
2015/05/04,18:50,0.552,0.338,0.599,0.554,0.484,0.257,0.231,��쐼,9.2,��
2015/05/04,19:00,0.557,0.340,0.591,0.549,0.481,0.256,0.232,��쐼,9.4,��
2015/05/04,19:10,0.550,0.339,0.597,0.551,0.483,0.256,0.231,��쐼,8.9,��
2015/05/04,19:20,0.555,0.337,0.596,0.553,0.483,0.257,0.232,��쐼,9.9,��
2015/05/04,19:30,0.551,0.339,0.594,0.549,0.479,0.257,0.232,��쐼,10.7,��
2015/05/04,19:40,0.554,0.338,0.599,0.553,0.485,0.257,0.232,��쐼,12.1,��
2015/05/04,19:50,0.555,0.340,0.590,0.548,0.478,0.256,0.232,��쐼,12.3,��
2015/05/04,20:00,0.553,0.336,0.599,0.553,0.485,0.257,0.231,��,10.7,��
2015/05/04,20:10,0.555,0.339,0.595,0.552,0.480,0.257,0.232,��,11.2,��
2015/05/04,20:20,0.549,0.340,0.594,0.550,0.482,0.257,0.232,��,11.2,��
2015/05/04,20:30,0.555,0.338,0.598,0.554,0.481,0.257,0.234,��,11.8,��
2015/05/04,20:40,0.552,0.339,0.592,0.550,0.480,0.256,0.231,��,10.5,��
2015/05/04,20:50,0.552,0.337,0.599,0.556,0.483,0.256,0.233,��,10.3,��
2015/05/04,21:00,0.554,0.341,0.593,0.548,0.479,0.257,0.231,��,10.2,��
2015/05/04,21:10,0.552,0.337,0.595,0.555,0.486,0.258,0.232,��,10.1,��
2015/05/04,21:20,0.554,0.340,0.595,0.548,0.477,0.257,0.232,��,9.0,��
2015/05/04,21:30,0.549,0.337,0.595,0.553,0.485,0.256,0.234,��,8.4,��
2015/05/04,21:40,0.554,0.339,0.597,0.548,0.479,0.255,0.233,��,8.4,��
2015/05/04,21:50,0.551,0.338,0.593,0.555,0.484,0.257,0.232,��,8.5,��
2015/05/04,22:00,0.555,0.339,0.600,0.551,0.479,0.257,0.234,��,9.2,��
2015/05/04,22:10,0.551,0.338,0.594,0.555,0.484,0.256,0.232,��,8.8,��
2015/05/04,22:20,0.557,0.339,0.600,0.550,0.481,0.258,0.233,��쐼,8.3,��
2015/05/04,22:30,0.551,0.338,0.591,0.554,0.481,0.258,0.231,��쐼,7.1,��
2015/05/04,22:40,0.553,0.341,0.600,0.552,0.481,0.256,0.233,��,5.9,��
2015/05/04,22:50,0.552,0.337,0.593,0.551,0.481,0.257,0.231,��,5.1,��
2015/05/04,23:00,0.553,0.339,0.596,0.553,0.481,0.257,0.232,��,5.0,��
2015/05/04,23:10,0.552,0.337,0.596,0.554,0.479,0.258,0.234,��,2.8,��
2015/05/04,23:20,0.553,0.339,0.593,0.553,0.483,0.257,0.232,�쐼,2.6,��
2015/05/04,23:30,0.555,0.339,0.598,0.550,0.477,0.258,0.234,���쐼,5.0,��
2015/05/04,23:40,0.548,0.339,0.591,0.553,0.483,0.257,0.233,��,6.5,��
2015/05/04,23:50,0.555,0.340,0.601,0.549,0.478,0.257,0.234,��,6.8,��
